This is the latest recevied weather packets stored in our database for station/object HB9FHL-13. If no packets are shown the sender has not sent any weather packets the latest 10 day(s).
| Time | Temp. | Humidity | Pressure | Rain* | Wind** | Luminosity | Snow |
|---|---|---|---|---|---|---|---|
| 1777605504 | 7.78° C | - | 1024.6 hPa | 0 mm | - | - | - |
| 1777605205 | 7.78° C | - | 1028.5 hPa | 0 mm | - | - | - |
| 1777604903 | 7.78° C | - | 1024.1 hPa | 0 mm | - | - | - |
| 1777604602 | 7.78° C | - | 1021.5 hPa | 0 mm | - | - | - |
| 1777604302 | 7.78° C | - | 1026.1 hPa | 0 mm | - | - | - |
| 1777604001 | 7.22° C | - | 1026.2 hPa | 0 mm | - | - | - |
| 1777603701 | 7.22° C | - | 1023.5 hPa | 0 mm | - | - | - |
| 1777603400 | 7.78° C | - | 1025.3 hPa | 0 mm | - | - | - |
| 1777603100 | 8.33° C | - | 1028.2 hPa | 0 mm | - | - | - |
| 1777602799 | 7.78° C | - | 1024.2 hPa | 0 mm | - | - | - |
| 1777602499 | 8.89° C | - | 1022.7 hPa | 0 mm | - | - | - |
| 1777602194 | 8.33° C | - | 1026.5 hPa | 0 mm | - | - | - |
| 1777601893 | 8.89° C | - | 1025.6 hPa | 0 mm | - | - | - |
| 1777601592 | 9.44° C | - | 1023.4 hPa | 0 mm | - | - | - |
| 1777601292 | 8.89° C | - | 1024.5 hPa | 0 mm | - | - | - |
| 1777600989 | 10° C | - | 1026.6 hPa | 0 mm | - | - | - |
| 1777600688 | 9.44° C | - | 1023 hPa | 0 mm | - | - | - |
| 1777600388 | 9.44° C | - | 1023.1 hPa | 0 mm | - | - | - |
| 1777600087 | 9.44° C | - | 1026.3 hPa | 0 mm | - | - | - |
| 1777599787 | 10° C | - | 1025.7 hPa | 0 mm | - | - | - |
| 1777599486 | 9.44° C | - | 1023.2 hPa | 0 mm | - | - | - |
| 1777599185 | 8.89° C | - | 1023.5 hPa | 0 mm | - | - | - |
| 1777598885 | 9.44° C | - | 1027.2 hPa | 0 mm | - | - | - |
| 1777598584 | 9.44° C | - | 1024 hPa | 0 mm | - | - | - |
| 1777598284 | 9.44° C | - | 1021.1 hPa | 0 mm | - | - | - |
* Rain since midnight (hover to see other rain measurements)
** Current wind speed in m/s (hover to see current wind gust speed)